Simultaneous Nadir Overpasses (SNOs) Predictions

Prediction of SNOs between METOP-A and NOAA-19 Satellite Orbit:

Table of predicted SNOs for the next 14.0 days since TLE Epoch: 6/22/2012
Index Date (METOP-A) Time (METOP-A) METOP-A Lat,Lon Date (NOAA-19) Time (NOAA-19) NOAA-19 Lat,Lon Distance(km) Time Diff (sec)
1 06/25/2012 05:48:29 73.47, 86.32 06/25/2012 05:47:18 73.46, 84.84 46.83 71
2 06/25/2012 06:39:18 -73.13,-107.10 06/25/2012 06:38:18 -73.12,-107.16 2.76 60
3 06/25/2012 07:29:58 73.09, 60.15 06/25/2012 07:29:16 73.10, 60.13 1.51 42
4 06/25/2012 08:20:41 -73.06,-132.59 06/25/2012 08:20:22 -73.05,-132.54 1.80 19
5 06/25/2012 09:11:20 73.07, 34.76 06/25/2012 09:11:20 73.04, 34.74 2.86 0
6 06/25/2012 10:02:03 -73.04,-157.98 06/25/2012 10:02:27 -73.04,-158.04 1.97 24
7 06/25/2012 10:52:43 72.99, 9.26 06/25/2012 10:53:24 72.98, 9.35 3.30 41
8 06/25/2012 11:43:26 -72.97, 176.52 06/25/2012 11:44:31 -72.98, 176.57 2.55 65
9 06/25/2012 12:34:12 72.62, -16.87 06/25/2012 12:35:22 72.62, -15.40 48.84 70
10 07/05/2012 03:09:30 -73.11, -54.69 07/05/2012 03:08:16 -73.12, -54.65 1.85 74
11 07/05/2012 04:00:09 73.11, 112.64 07/05/2012 03:59:14 73.12, 112.62 0.98 55
12 07/05/2012 04:50:52 -73.09, -80.08 07/05/2012 04:50:20 -73.06, -80.04 3.21 32
13 07/05/2012 05:41:31 73.09, 87.25 07/05/2012 05:41:18 73.06, 87.23 3.34 13
14 07/05/2012 06:32:14 -73.07,-105.47 07/05/2012 06:32:25 -73.05,-105.54 2.54 11
15 07/05/2012 07:22:54 73.01, 61.75 07/05/2012 07:23:22 73.00, 61.84 3.19 28
16 07/05/2012 08:13:37 -72.99,-130.97 07/05/2012 08:14:29 -73.00,-130.93 1.26 52
17 07/05/2012 09:04:16 72.99, 36.36 07/05/2012 09:05:27 72.99, 36.34 0.89 71




NCC Satellite Simultaneous Nadir Overpasses (SNOs) Prediction Service
